Погода в Прилесье

Россия / Тульская область     53°50′40″N   38°08′23″E
темп.,
°C
ветер,
м/с
пор.,
м/с
влажн.,
%
обл.,
%
осадки,
мм/ч
давл.,
гПа
погр.,
м
13 мая, чт
чт1300:00+6вюв359691 0.0 101990
03:00+6в499531 0.0 1019174
06:00+7в5139587 0.0 1018338
09:00+11вюв61485100 0.0 1017620
12:00+13ююв5979100 0.1 10171058
15:00+11вюв41296100 5.1 1016526
18:00+14ю48857 1.2 1015700
21:00+11ю339190 1.4 101630
14 мая, пт
пт1400:00+10ююв33922 0.0 101625
03:00+9ююв2392100 0.0 101727
06:00+10юв3591100 0.0 101796
09:00+16юв468399 0.0 1016398
12:00+20юв6970100 0.0 10151281
15:00+21юв71169100 0.4 10131412
18:00+19ююв814765 1.4 1012827
21:00+16ююв5159083 1.4 1011398
15 мая, сб
сб1500:00+15ю3891100 0.1 1011164
03:00+15ююв369688 2.4 1010133
06:00+15ююв369599 1.1 1010155
09:00+19ююз5982100 1.1 1010519
12:00+20ююз6868100 0.0 10101085
15:00+20ююз710628 0.1 10111832
18:00+18юз610730 0.8 10121027
21:00+14юз38919 0.8 1013179
16 мая, вс
вс1600:00+12юз349231 0.0 101469
03:00+12ююз359398 0.0 101575
06:00+13ю359074 0.0 1015132
09:00+18ююз35715 0.0 1015556
12:00+21ююз46601 0.9 10161354
15:00+22юз36545 1.4 10151901
18:00+21з236663 0.0 1014160
21:00+17св1171100 0.0 101511
17 мая, пн
пн1700:00+15всв347952 0.0 101562
03:00+15в388280 0.0 1015173
06:00+15в4118773 0.0 1014251
09:00+20в6107464 0.0 1014461
12:00+24вюв686129 0.0 1013801
15:00+26юв68545 0.0 10121188
18:00+23юв510655 0.0 1011473
21:00+18юв5158093 0.0 1011336